Regional Weather Roundup
Issued by NWS

Home | Current Version | Previous Version | Graphics & Text | Print | Product List | Glossary On
Versions: 1 2 3 4 5 6 7 8 9 10 11 12 13 14 15 16 17 18 19 20 21 22 23 24 25 26 27 28 29 30 31 32 33 34 35 36 37 38 39 40 41 42 43 44 45 46 47 48 49 50
000
ASUS45 KSLC 291210
RWRUT

UTAH REGIONAL WEATHER ROUNDUP
NATIONAL WEATHER SERVICE SALT LAKE CITY UT
600 AM MDT TUE JUL 29 2014

UTZ001>011-023>025-291300-

NORTHERN UTAH

CITY           SKY/WX    TMP DP  RH WIND       PRES   REMARKS
HILL AFB       CLOUDY    66  61  82 E3        30.21S
LOGAN          LGT RAIN  64  62  93 CALM      30.20S
OGDEN          CLOUDY    69  57  65 SE7       30.19R
PROVO AIRPORT  CLOUDY    64  61  88 SE6       30.22S
SALT LAKE CITY CLOUDY    68  63  84 S7        30.17F
VERNAL         CLOUDY    62  59  90 W3        30.27R
WENDOVER       CLOUDY    70  59  68 CALM      30.19S
HEBER CITY     CLOUDY    59  57  94 CALM      30.27S
WEST JORDAN    CLOUDY    68  66  94 SW5       30.21S

$$

UTZ012>022-026-027-291300-

SOUTHERN UTAH

CITY           SKY/WX    TMP DP  RH WIND       PRES   REMARKS
BRYCE CANYON   PTCLDY    50  49  96 W7        30.42S
CEDAR CITY     MOCLDY    63  54  72 SE6       30.26S
MILFORD        CLOUDY    69  53  56 SW8       30.21S
MOAB/CYNLANDS  CLEAR     64  63  96 NW5       30.23R
PRICE          CLOUDY    62  57  83 E8        30.32S
ST GEORGE      CLOUDY    75  55  50 E8        30.11F

$$

REGIONAL REPORTS     COLORADO/ARIZONA

CITY           SKY/WX    TMP DP  RH WIND       PRES   REMARKS
CRAIG, CO      CLOUDY    55  54  96 CALM      30.34R
GRAND JUNCTION CLOUDY    62  60  93 E9        30.26S
RIFLE          LGT RAIN  62  60  93 E3        30.32R
MONTROSE       RAIN      62  60  93 S7        30.37S
CORTEZ         CLOUDY    61  61 100 CALM      30.33R
PAGE, AZ       CLEAR     73  51  46 SW5       30.20S
GRAND CANYON   CLEAR     50  48  93 CALM      30.37S
KINGMAN        CLEAR     69  59  70 S6        30.12S
FLAGSTAFF      CLEAR     51  48  89 CALM      30.40S

$$

REGIONAL REPORTS    NEVADA/IDAHO/WYOMING

CITY           SKY/WX    TMP DP  RH WIND       PRES   REMARKS
LAS VEGAS, NV  PTCLDY    80  62  54 SW7       30.00R
ELY            CLOUDY    58  52  80 CALM      30.31R
ELKO           CLOUDY    65  55  70 CALM      30.24R
POCATELLO, ID  CLOUDY    64  60  87 S7        30.21S
BURLEY         PTCLDY    63  56  78 NE9       30.17S
EVANSTON, WY   CLOUDY    56  54  93 SW6       30.36S
ROCK SPRINGS   CLOUDY    64  46  52 W6        30.33R

$$



USA.gov is the U.S. government's official web portal to all federal, state and local government web resources and services.